When you browse on this site, cookies collect data to enhance your experience and personalize the content and advertising you see.
Visit our Privacy Policy to learn more. By continuing to use the site, you agree to this use of cookies and data.
  • In Czech Republic
  • List of Countries
  • For 7 days
  • Water Temperature
  • Satellite Maps
  • Weather Map
  • Weather Widgets
  • user-avatar
    Login

    Hourly Weather Kenitra

    Today, 18 June, Tuesday

    Time Temperature Precipitation Wind Pressure Humidity
    00:00 +16°C° 0 mm 1 mps 761 mmHg 87%
    01:00 +16°C° 0 mm 1 mps 761 mmHg 87%
    02:00 +16°C° 0 mm 1 mps 760 mmHg 87%
    03:00 +15°C° 0 mm 1 mps 760 mmHg 87%
    04:00 +15°C° 0 mm 1 mps 760 mmHg 87%
    05:00 +16°C° 0 mm 1 mps 760 mmHg 87%
    06:00 +16°C° 0 mm 1 mps 760 mmHg 86%
    07:00 +19°C° 0 mm 1 mps 761 mmHg 75%
    08:00 +21°C° 0 mm 1 mps 761 mmHg 64%
    09:00 +24°C° 0 mm 1 mps 761 mmHg 53%
    10:00 +25°C° 0 mm 2 mps 761 mmHg 49%
    11:00 +26°C° 0 mm 3 mps 760 mmHg 44%
    12:00 +28°C° 0 mm 3 mps 760 mmHg 40%
    13:00 +28°C° 0 mm 4 mps 760 mmHg 39%
    14:00 +28°C° 0 mm 4 mps 760 mmHg 38%
    15:00 +28°C° 0 mm 5 mps 759 mmHg 37%
    16:00 +26°C° 0 mm 5 mps 759 mmHg 43%
    17:00 +25°C° 0 mm 5 mps 759 mmHg 49%
    18:00 +23°C° 0 mm 5 mps 759 mmHg 55%
    19:00 +21°C° 0 mm 3 mps 760 mmHg 67%
    20:00 +20°C° 0 mm 2 mps 760 mmHg 78%
    21:00 +19°C° 0 mm 1 mps 761 mmHg 90%
    22:00 +19°C° 0 mm 1 mps 761 mmHg 90%
    23:00 +19°C° 0 mm 1 mps 761 mmHg 91%

    Tomorrow, 19 June, Wednesday

    Time Temperature Precipitation Wind Pressure Humidity
    00:00 +18°C° 0 mm 1 mps 761 mmHg 92%
    01:00 +18°C° 0 mm 1 mps 761 mmHg 92%
    02:00 +16°C° 0 mm 0 mps 761 mmHg 92%
    03:00 +16°C° 0 mm 0 mps 760 mmHg 92%
    04:00 +16°C° 0 mm 0 mps 760 mmHg 91%
    05:00 +16°C° 0 mm 0 mps 760 mmHg 91%
    06:00 +16°C° 0 mm 0 mps 760 mmHg 90%
    07:00 +20°C° 0 mm 1 mps 760 mmHg 81%
    08:00 +22°C° 0 mm 1 mps 760 mmHg 72%
    09:00 +24°C° 0 mm 1 mps 760 mmHg 63%
    10:00 +26°C° 0 mm 2 mps 760 mmHg 59%
    11:00 +27°C° 0 mm 3 mps 760 mmHg 55%
    12:00 +28°C° 0 mm 5 mps 760 mmHg 51%
    13:00 +28°C° 0 mm 5 mps 760 mmHg 52%
    14:00 +28°C° 0 mm 5 mps 760 mmHg 53%
    15:00 +27°C° 0 mm 6 mps 759 mmHg 55%
    16:00 +26°C° 0 mm 5 mps 760 mmHg 57%
    17:00 +25°C° 0 mm 5 mps 760 mmHg 60%
    18:00 +23°C° 0 mm 4 mps 760 mmHg 62%
    19:00 +22°C° 0 mm 3 mps 760 mmHg 72%
    20:00 +20°C° 0 mm 2 mps 761 mmHg 81%
    21:00 +19°C° 0 mm 1 mps 761 mmHg 90%
    22:00 +19°C° 0 mm 1 mps 761 mmHg 90%
    23:00 +19°C° 0 mm 1 mps 761 mmHg 91%

    Day after tomorrow, 20 June, Thursday

    Time Temperature Precipitation Wind Pressure Humidity
    00:00 +16°C° 0 mm 0 mps 761 mmHg 92%
    01:00 +16°C° 0 mm 0 mps 761 mmHg 92%
    02:00 +16°C° 0 mm 0 mps 761 mmHg 92%
    03:00 +16°C° 0 mm 0 mps 760 mmHg 92%
    04:00 +16°C° 0 mm 0 mps 760 mmHg 91%
    05:00 +16°C° 0 mm 0 mps 760 mmHg 91%
    06:00 +18°C° 0 mm 1 mps 761 mmHg 91%
    07:00 +20°C° 0 mm 1 mps 761 mmHg 81%
    08:00 +22°C° 0 mm 1 mps 761 mmHg 71%
    09:00 +24°C° 0 mm 1 mps 761 mmHg 60%
    10:00 +26°C° 0 mm 2 mps 761 mmHg 57%
    11:00 +27°C° 0 mm 4 mps 760 mmHg 53%
    12:00 +28°C° 0 mm 5 mps 760 mmHg 49%
    13:00 +28°C° 0 mm 5 mps 760 mmHg 50%
    14:00 +27°C° 0 mm 6 mps 760 mmHg 51%
    15:00 +27°C° 0 mm 6 mps 759 mmHg 53%
    16:00 +26°C° 0 mm 6 mps 759 mmHg 56%
    17:00 +25°C° 0 mm 5 mps 759 mmHg 60%
    18:00 +23°C° 0 mm 5 mps 760 mmHg 64%
    19:00 +21°C° 0 mm 4 mps 760 mmHg 73%
    20:00 +20°C° 0 mm 3 mps 760 mmHg 82%
    21:00 +18°C° 0 mm 2 mps 761 mmHg 91%
    22:00 +18°C° 0 mm 2 mps 761 mmHg 91%
    23:00 +17°C° 0 mm 2 mps 761 mmHg 92%

    21 June, Friday

    Time Temperature Precipitation Wind Pressure Humidity
    00:00 +18°C° 0 mm 1 mps 761 mmHg 93%
    01:00 +18°C° 0 mm 1 mps 761 mmHg 92%
    02:00 +18°C° 0 mm 1 mps 760 mmHg 92%
    03:00 +18°C° 0 mm 1 mps 760 mmHg 92%
    04:00 +18°C° 0 mm 1 mps 760 mmHg 91%
    05:00 +18°C° 0 mm 1 mps 760 mmHg 90%
    06:00 +18°C° 0 mm 1 mps 761 mmHg 89%
    07:00 +20°C° 0 mm 1 mps 761 mmHg 79%
    08:00 +22°C° 0 mm 1 mps 761 mmHg 68%
    09:00 +24°C° 0 mm 1 mps 761 mmHg 58%
    10:00 +25°C° 0 mm 2 mps 760 mmHg 54%
    11:00 +26°C° 0 mm 3 mps 760 mmHg 50%
    12:00 +28°C° 0 mm 4 mps 760 mmHg 46%
    13:00 +28°C° 0 mm 5 mps 759 mmHg 46%
    14:00 +28°C° 0 mm 5 mps 759 mmHg 47%
    15:00 +28°C° 0 mm 6 mps 759 mmHg 47%
    16:00 +26°C° 0 mm 6 mps 759 mmHg 51%
    17:00 +24°C° 0 mm 6 mps 759 mmHg 56%
    18:00 +23°C° 0 mm 5 mps 759 mmHg 60%
    19:00 +21°C° 0 mm 4 mps 759 mmHg 69%
    20:00 +19°C° 0 mm 3 mps 760 mmHg 78%
    21:00 +18°C° 0 mm 2 mps 760 mmHg 87%
    22:00 +17°C° 0 mm 2 mps 760 mmHg 87%
    23:00 +18°C° 0 mm 1 mps 760 mmHg 88%

    22 June, Saturday

    Time Temperature Precipitation Wind Pressure Humidity
    00:00 +18°C° 0 mm 1 mps 760 mmHg 89%
    01:00 +16°C° 0 mm 1 mps 760 mmHg 89%
    02:00 +16°C° 0 mm 1 mps 759 mmHg 89%
    03:00 +16°C° 0 mm 1 mps 759 mmHg 89%
    04:00 +16°C° 0 mm 1 mps 759 mmHg 88%
    05:00 +16°C° 0 mm 1 mps 759 mmHg 88%
    06:00 +16°C° 0 mm 1 mps 759 mmHg 87%
    07:00 +20°C° 0 mm 1 mps 759 mmHg 75%
    08:00 +22°C° 0 mm 1 mps 759 mmHg 63%
    09:00 +25°C° 0 mm 1 mps 759 mmHg 50%
    10:00 +26°C° 0 mm 2 mps 759 mmHg 48%
    11:00 +27°C° 0 mm 3 mps 759 mmHg 45%
    12:00 +28°C° 0 mm 5 mps 759 mmHg 42%
    13:00 +28°C° 0 mm 5 mps 758 mmHg 43%
    14:00 +28°C° 0 mm 5 mps 758 mmHg 44%
    15:00 +28°C° 0 mm 6 mps 757 mmHg 45%
    16:00 +27°C° 0 mm 5 mps 757 mmHg 49%
    17:00 +25°C° 0 mm 5 mps 757 mmHg 53%
    18:00 +23°C° 0 mm 5 mps 757 mmHg 57%
    19:00 +21°C° 0 mm 4 mps 758 mmHg 66%
    20:00 +20°C° 0 mm 3 mps 758 mmHg 75%
    21:00 +18°C° 0 mm 2 mps 759 mmHg 85%
    22:00 +18°C° 0 mm 2 mps 759 mmHg 85%
    23:00 +17°C° 0 mm 2 mps 758 mmHg 86%

    23 June, Sunday

    Time Temperature Precipitation Wind Pressure Humidity
    00:00 +18°C° 0 mm 1 mps 758 mmHg 87%
    01:00 +18°C° 0 mm 1 mps 758 mmHg 87%
    02:00 +18°C° 0 mm 1 mps 758 mmHg 87%
    03:00 +16°C° 0 mm 0 mps 757 mmHg 87%
    04:00 +18°C° 0 mm 1 mps 757 mmHg 86%
    05:00 +18°C° 0 mm 1 mps 757 mmHg 84%
    06:00 +18°C° 0 mm 1 mps 757 mmHg 82%
    07:00 +21°C° 0 mm 1 mps 757 mmHg 72%
    08:00 +23°C° 0 mm 2 mps 757 mmHg 62%
    09:00 +25°C° 0 mm 2 mps 757 mmHg 51%
    10:00 +26°C° 0 mm 3 mps 757 mmHg 48%
    11:00 +27°C° 0 mm 4 mps 757 mmHg 45%
    12:00 +28°C° 0 mm 4 mps 757 mmHg 42%
    13:00 +28°C° 0 mm 5 mps 756 mmHg 43%
    14:00 +28°C° 0 mm 5 mps 756 mmHg 43%
    15:00 +28°C° 0 mm 5 mps 756 mmHg 44%
    16:00 +27°C° 0 mm 5 mps 756 mmHg 48%
    17:00 +26°C° 0 mm 5 mps 756 mmHg 52%
    18:00 +25°C° 0 mm 5 mps 756 mmHg 56%
    19:00 +22°C° 0 mm 4 mps 757 mmHg 67%
    20:00 +20°C° 0 mm 2 mps 757 mmHg 77%
    21:00 +20°C° 0 mm 1 mps 758 mmHg 88%
    22:00 +19°C° 0 mm 1 mps 758 mmHg 89%
    23:00 +19°C° 0 mm 1 mps 758 mmHg 90%
    Show more